www.pogodaiklimat.ru

Погода и климат >> Архив погоды >> Пакистан >> Бахавалпур аэропорт


ПОГОДА а Бахавалпур аэропорту

  • Прогноз погоды а Бахавалпур аэропорту
  • Монитор погоды а Бахавалпур аэропорту

АРХИВ ПОГОДЫ а Бахавалпур аэропорту

Время (UTC), дата Ветер
(напр.,м/с)
 
Видим.   Явления Облачность Т
(С)
Тd
(С)
f
(%)
Тe
(С)
Тes
(С)
Комфортность P
(гПа)
Po
(гПа)
Тmin
(С)
Tmax
(С)
R
(мм)
R24
(мм)
S
(см)
09 11.08 СВ 3 4000 м 9/5 1200 м
[Sc diur, vesp Ac trans]
+34.0 +25.7 62 +49 +53 опасность
перегрева
998.4 985.5
12 11.08 СВ 3 4000 м 9/5 1200 м
[Sc diur, vesp Ac trans]
+34.0 +25.7 62 +49 +50 опасность
перегрева
996.5 983.0 +34.5
15 11.08 штиль 0 4000 м дым 5/1 1050 м
[Sc Ac trans]
+33.0 +26.1 67 +49 +49 опасность
перегрева
997.5 984.6
18 11.08 штиль 0 4000 м дым 3/0
[Ac trans]
+31.5 +25.2 69 +45 +45 опасность
перегрева
999.0 985.3
21 11.08 штиль 0 4000 м дым ясно +31.0 +25.4 72 +45 +45 опасность
перегрева
998.0 985.0
00 12.08 штиль 0 2000 м дым ясно +30.0 +24.3 72 +42 +42 опасность
перегрева
997.7 983.9
03 12.08 ЮЗ 3 2000 м дым 4/0
[Ac trans]
+31.0 +25.4 72 +45 +49 опасность
перегрева
999.7 986.0 +28.5
06 12.08 ЮЗ 7 4000 м дым 3/0 1000 м
[Ac trans]
+35.0 +25.3 57 +49 +54 опасность
перегрева
1000.0 986.5
09 12.08 ЮЗ 7 4000 м мгла 5/0 1000 м
[Ac trans]
+37.0 +24.4 49 +49 +53 опасность
перегрева
985.4 972.8
12 12.08 ЮЗ 5 4000 м мгла 3/0 1000 м
[Ac trans]
+37.5 +24.2 47 +49 +51 опасность
перегрева
997.8 984.1 +38.0
15 12.08 ЮЗ 5 4000 м 5/3 900 м
[Sc Ac trans]
+35.0 +24.3 54 +47 +47 опасность
перегрева
984.7 972.0
00 13.08 ЮЗ 3 2000 м дым ясно +29.0 +22.4 68 +38 +38 очень
душно
998.4 984.7
03 13.08 ЮЗ 5 4000 м дым ясно +32.0 +23.4 60 +43 +46 опасность
перегрева
999.7 986.1 +28.0
06 13.08 ЮЗ 7 4000 м дым ясно +34.0 +23.3 54 +45 +51 опасность
перегрева
1000.7 987.2
12 13.08 СЗ 7 4000 м дым ясно +36.0 +24.0 50 +47 +48 опасность
перегрева
997.2 983.8 +38.2
15 13.08 штиль 0 4000 м дым ясно +33.0 +25.3 64 +47 +47 опасность
перегрева
998.1 985.1
18 13.08 штиль 0 4000 м дым ясно +31.5 +26.0 73 +47 +47 опасность
перегрева
1000.7 987.0
21 13.08 ЮЗ 3 4000 м дым ясно +30.5 +24.1 69 +42 +42 опасность
перегрева
999.5 986.4
00 14.08 ЮЗ 5 4000 м дым ясно +29.5 +23.8 71 +40 +40 очень
душно
999.3 985.6
03 14.08 ЮЗ 5 4000 м дым 8/3 1050 м
[Sc Ac trans]
+30.0 +23.5 68 +41 +42 опасность
перегрева
1000.7 987.0 +28.5
06 14.08 ЮЗ 5 4000 м дым 5/0
[Ac trans]
+34.0 +22.5 51 +43 +51 опасность
перегрева
1000.9 986.8
09 14.08 ЮЗ 3 4000 м мгла 8/3 900 м
[Sc Ac trans]
+35.5 +22.6 47 +45 +51 опасность
перегрева
999.2 986.3
12 14.08 ЮЗ 3 4000 м мгла 8/3 900 м
[Sc Ac trans]
+36.5 +22.1 43 +45 +46 опасность
перегрева
998.0 984.5 +37.0
15 14.08 З 3 4000 м дым 5/5 900 м
[Sc]
+33.0 +21.3 50 +41 +41 опасность
перегрева
999.7 986.7
18 14.08 З 3 4000 м дым 5/5 900 м
[Sc]
+31.5 +22.0 57 +40 +40 очень
душно
1001.3 987.6
21 14.08 СВ 3 4000 м дым 3/3 900 м
[Sc]
+29.5 +23.0 68 +39 +39 очень
душно
999.8 986.7
00 15.08 4000 м дым ясно +29.0 +23.2 71 999.0 985.3
09 15.08 СЗ 3 4000 м дым 6/5 900 м
[Sc diur, vesp Ac trans]
+38.0 +25.6 49 +52 +59 опасность
перегрева
1000.3 987.5
12 15.08 СЗ 1 4000 м дым 6/4 900 м
[Sc diur, vesp Ac trans]
+38.0 +26.4 52 +54 +56 опасность
перегрева
999.1 985.7 +38.7
15 15.08 штиль 0 4000 м дым 4/4 900 м
[Sc]
+34.0 +27.2 68 +53 +53 опасность
перегрева
999.1 986.2
18 15.08 штиль 0 4000 м дым 1/0
[Ac trans]
+33.5 +26.6 67 +50 +50 опасность
перегрева
1000.4 986.9
21 15.08 штиль 0 4000 м дым 6/1 1200 м
[Sc Ac trans]
+32.0 +26.5 73 +49 +49 опасность
перегрева
999.3 986.3
00 16.08 штиль 0 2000 м дым 6/1 1200 м
[Sc Ac trans]
+31.0 +26.1 75 +46 +46 опасность
перегрева
999.1 985.4
06 16.08 З 1 4000 м дым 4/0
[Ac trans]
+35.0 +26.8 63 +53 +69 опасность
перегрева
1000.2 986.8
09 16.08 ЮЗ 1 4000 м дым 4/0
[Ac trans]
+38.0 +27.2 54 +56 +70 опасность
перегрева
998.3 985.6
15 16.08 СВ 3 4000 м дым 8/5 900 м
[Sc Ac trans]
+34.0 +27.2 68 +53 +53 опасность
перегрева
999.8 986.9
18 16.08 ЮЗ 7 4000 м зарница 8/5 900 м
[Sc Ac trans]
+30.0 +25.1 75 +43 +43 опасность
перегрева
1001.6 987.9
21 16.08 ЮЗ 5 4000 м дым 5/5 900 м
[Sc]
+29.0 +24.5 77 +41 +41 опасность
перегрева
1000.2 987.1
00 17.08 ЮЗ 5 2000 м дым 5/3 900 м
[Sc Ac trans]
+28.5 +25.0 81 +41 +41 опасность
перегрева
999.6 985.9
03 17.08 СЗ 1 4000 м дым 5/3 900 м
[Sc Ac trans]
+29.5 +25.1 77 +43 +46 опасность
перегрева
999.6 985.9 +28.0
06 17.08 СЗ 3 4000 м дым 1/1 900 м
[Sc diur, vesp]
+34.0 +24.1 56 +46 +61 опасность
перегрева
999.9 986.4
09 17.08 С 3 4000 м дым 4/4 900 м
[Sc diur, vesp]
+36.5 +24.6 51 +49 +58 опасность
перегрева
999.4 986.6
12 17.08 СЗ 3 4000 м дым 4/4 900 м
[Sc diur, vesp]
+37.0 +26.0 53 +52 +54 опасность
перегрева
997.3 984.0 +37.2
15 17.08 штиль 0 4000 м дым 4/0
[Ac trans]
+33.0 +25.3 64 +47 +47 опасность
перегрева
998.8 985.8
03 18.08 ЮЗ 5 4000 м дым 3/0
[Ac trans]
+31.0 +26.1 75 +46 +49 опасность
перегрева
1001.8 988.1 +28.0
06 18.08 ЮЗ 5 4000 м дым ясно +34.0 +27.2 68 +53 +63 опасность
перегрева
1001.4 987.9

 

Местоположение метеостанции Бахавалпур аэропорт (Пакистан): широта 29.40 долгота 71.78 высота над уровнем моря 117 м.

В архиве по умолчанию представлена погода а Бахавалпур аэропорту за последнюю неделю. Архивные данные за месяц целиком и за предыдущие месяцы, начиная с января 2011 года, Вы можете получить, выбрав интересующий диапазон дат из раскрывающегося списка и нажав кнопку "Ввод!".


*Определитесь, кто Вы:
робот инопланетянин человек

Внимание! Время в таблицах - всемирное. Для получения местного времени необходимо прибавить поправку, которая равна 5 ч.

Смотрите также архив погоды в соседних городах и на ближайших метеорологических станциях:

Погода в Мултане (Пакистан) (95 км)
Погода в Ханевале (Пакистан) (101 км)
Погода в Дера Гази Хан (Пакистан) (133 км)
Погода в Ханпуре (Пакистан) (136 км)
Погода в Кот Адду (Пакистан) (142 км)
Погода в Бахавалнагаре (Пакистан) (155 км)
Погода на Авиабазе Raifiqui (Пакистан) (159 км)
Погода в Рахим Яр Хан (Пакистан) (178 км)
Погода в Сахивале (Пакистан) (184 км)
Погода в Тоба Тек Сингх (Пакистан) (188 км)

Пояснения к столбцам:

Ветер - указаны скорость ветра в м/с - средняя за 10 мин, порывы в срок и между сроками (в фигурных скобках) и направление, откуда дует ветер: С - северный, СВ - северо-восточный, В - восточный, ЮВ - юго-восточный, Ю - южный, ЮЗ - юго-западный, З - западный, СЗ - северо-западный.
Видимость - горизонтальная дальность видимости в метрах или километрах. При видимости от 1 до 10 км при отсутствии осадков обычно наблюдается дымка, при ухудшении видимости до 1 км и менее - туман. В сухую погоду видимость может ухудшаться дымом, пылью или мглою.
Явления - указаны атмосферные явления, наблюдавшиеся в срок или в последний час перед сроком; фигурными скобками обозначены явления, наблюдавшиеся между сроками (за 1-3 часа до срока); квадратными скобками обозначены град или гололедные отложения с указанием их диаметра в мм.
Облачность - указаны через наклонную черту общая и нижняя облачность в баллах и высота нижней границы облаков в метрах; квадратными скобками обозначены формы облаков: Ci - перистые, Cs - перисто-слоистые, Cc - перисто-кучевые, Ac - высококучевые, As - высокослоистые, Sc - слоисто-кучевые, Ns - слоисто-дождевые, Cu - кучевые, Cb - кучево-дождевые. Подробнее классификацию облаков см. в Атласе облаков (PDF).
T - Температура воздуха - температура, измеренная на высоте 2 м над землей.
Td - Температура точки росы - температура, при понижении до которой содержащийся в воздухе водяной пар достигнет насыщения.
f - Относительная влажность воздуха - влажноcть воздуха, измеренная на высоте 2 м над землей.
Te - Эффективная температура - температура, которую ощущает одетый по сезону человек в тени. Характеристика душности погоды. При расчете учитывается влияние влажности воздуха и скорости ветра на теплоощущения человека.
Tes - Эффективная температура на солнце - температура, которую ощущает человек, с поправкой на солнечный нагрев. Характеристика знойности погоды. Зависит от высоты солнца над горизонтом, облачности и скорости ветра. Ночью, в пасмурную погоду, а также при ветре 12 м/с и более поправка равна нулю.
P - Атмосферное давление - приведенное к уровню моря атмосферное давление.
Po - Атмосферное давление - измеренное на уровне метеостанции атмосферное давление.
Tmin - Минимальная температура - минимум температуры воздуха на высоте 2 м над землей.
Tmax - Максимальная температура - максимум температуры воздуха на высоте 2 м над землей.
R - Количество осадков - Количество выпавших осадков за период времени, мм. При наведении курсора мыши на число - период времени, за который выпало указанное количество осадков.
R24 - Количество осадков - Количество выпавших осадков за 24 часа, мм.
S - Снежный покров - Высота снежного покрова, см. При наведении курсора мыши на число - состояние снежного покрова и степень покрытия местности в баллах.